Showing default

METEOR 3-5, 21655

Orbit data source: Space-Track

METEOR 3-5, 21655 is a payload satellite owned by Rosgidromet (CIS) in LEO that was launched on Thu, 15 Aug 1991 UTC via a TSIKLON-3 launch vehicle from the Plesetsk Missile And Space Complex (PKMTR). Payloads include a variety of satellites, spacecraft, and rockets equipped with specific instruments for various scientific and technological missions. These include communications satellites like Starlink; space stations such as the ISS; scientific satellites like the Hubble; Earth observation satellites from companies like Planet Labs, Umbra, and HawkEye 360; GPS; miniature CubeSats for education and research; and military/defense satellites.

Loading next visibility...
METEOR 3-5 details
Identifier
21655, 1991-056A
Orbit
LEO
Last TLE update21 hours ago
Origin
Flag of CISRosgidromet (CIS)
ManufacturerVNIIEM
MissionCivil Weather
Bus & MotorMETEOR-3, Unknown motor
Mass2,150 kg wet, 2,150 kg dry
Launch date (UTC)
1991-08-15 (33 years ago)
Launch vehicle
TSIKLON-3
Launch site
Plesetsk Missile And Space Complex (PKMTR)
Object type
Payload
Rocket body
Debris
Shape & HBRCyl + 2 Pan, 12.7 m
Radar Cross Section21.153 m², Large (>1 m²)

Expand to show TLE details & history

TLE from 21 hours ago
0 METEOR 3-5
1 21655U 91056A   24360.55226007 -.00000094  00000-0 -27531-3 0  9998
2 21655  82.5557 160.0069 0013937  48.2603 311.9709 13.17140335603660
Epoch: 2024-12-25T13:15Z
Definitive object data (Epoch: 2024-12-25T13:15:15.27Z)
Latitude0.00004°
Longitude-133.35109°
Altitude1,191.418 km
Speed7.261 km/s
True Right ascension10h 40m 01s
True Declination0° 00' 00"
Sunlit
Object was in daylight at TLE epoch
Visualization TLE readout
Latitude-51.40975°
Longitude55.3999°
Altitude1,226.074 km
Speed7.236 km/s
Apparent Right ascension22h 31m 53s
Apparent Declination-46° 29' 25"
Sunlit
Object is in daylight
Visualization observer readout
Local Sidereal Time09:50:02
Azimuth225.731° WSW
Elevation-79.949°
Doppler factor1
Orbital elements
Apogee altitude1,203.459 km
Perigee altitude1,182.355 km
Semi-major axis7,571.044 km
Eccentricity0.0013937
Inclination82.5557°
RAAN160.0069°
Arg. of periapsis48.2603°
True anomaly311.85202°
Mean anomaly311.9709°
Eccentric anomaly311.91148°
Mean motion3.29465 °/min
BSTAR-0.00027531
Orbital period109.27 mins
Loading maneuver chart data...
Loading historical data...
Loading historical data...
Loading historical data...
Loading historical data...
Loading historical data...
Loading historical data...
Loading historical data...

METEOR 3-5 Visibility forecast

Observer location: undefined°, undefined

Span
Click to sort rows by Start time (UTC) header in descending order
Start Az.
Max El. time (UTC)
Max El. Az.
Max El.
End time (UTC)
End Az.
14 mins2024-12-26 11:12:51.476Z172.799° S2024-12-26 11:19:51.476Z98.032° ESE42.287°2024-12-26 11:26:51.476Z13.832° NNE
9 mins2024-12-26 13:06:51.476Z253.053° W2024-12-26 13:10:51.476Z293.108° NW20.672°2024-12-26 13:15:51.476Z338.942° N
6 mins2024-12-26 20:52:51.476Z42.303° NE2024-12-26 20:54:51.476Z60.16° ENE14.693°2024-12-26 20:58:51.476Z94.848° ESE
12 mins2024-12-26 22:40:51.476Z353.121° N2024-12-26 22:46:51.476Z161.233° S44.76°2024-12-26 22:52:51.476Z173.623° S
5 mins2024-12-27 00:33:51.476Z297.246° NW2024-12-27 00:35:51.476Z279.192° WNW14.287°2024-12-27 00:38:51.476Z253.669° W
|